STARLINK-31859 (59848 NORAD) Tracking and Keplerian Element Data

This shows tracking and keplerian element data for the satellite.

Feedback or suggestion? Click here.




ElementValue
Catalog59848
NameSTARLINK-31859
Epoch Orbit370
Epoch Day160.16667824
Epoch Year2024
RAAN318.6195
Inclination43.0009
Eccentricity0.000199
Argument of Perigee280.9323
Mean Anonmoly88.7188
Mean Motion15.66659788
Decay Rate-0.01739598
L11 59848U 24097P 24160.16667824 -.01739598 00000+0 -18354-1 0 9994
L22 59848 43.0009 318.6195 0001990 280.9323 88.7188 15.66659788 3702



Live tracking and technical data element details for STARLINK-31859 (NORAD 59848). STARLINK-31859 can be tracked NOW for your location showing map with azimuth and elevation plus other details from your city location.







IsCatalogInMostPopularTable: catalog: 59848, numindb: 6
Update: records affected: 1



GetName: 59848 STARLINK-31859

Hit Count: updated at: Tue, 16 Jul 2024 02:53:43 GMT